Wetbulb
48.13 42.25 38.84 40.57 42.48 42.72 42.97 39.75 37.51 40.61 44.77 41.14 40.10 40.84 43.18 45.71 45.80 45.69 46.72 47.41 48.41 50.13 52.38 53.08 53.90 54.47 54.26 54.32 54.63 58.67 57.89 57.70 58.26 58.94 64.13 65.21 64.67 64.87 65.64 65.71 64.96 61.00 58.14 55.31
41.21 36.07 42.73 44.95 44.92 42.59 40.06 36.77 36.16 40.21 43.20 40.17 38.35 38.07 41.76 43.77 44.41 45.23 45.40 46.12 47.22 48.22 49.75 51.74 52.22 53.18 54.08 54.18 54.56 55.20 57.11 58.56 59.28 59.93 61.39 63.81 62.90 61.74 60.46 61.67 60.85 57.35 53.38 50.85
38.04 40.14 44.52 42.75 40.66 38.31 37.40 35.12 35.36 35.29 38.91 39.57 37.54 35.25 38.71 42.95 44.45 45.64 46.57 46.97 47.35 47.49 48.16 49.74 50.38 51.41 53.19 54.44 55.03 55.28 56.49 57.05 59.50 59.99 62.47 60.13 55.66 54.41 53.08 55.11 53.82 52.58 51.38 50.32
39.55 43.40 40.78 39.09 38.55 39.20 34.06 40.22 39.34 37.76 33.75 27.97 37.15 25.64 34.51 39.12 40.45 42.32 41.96 42.89 44.66 46.20 47.92 48.91 49.51 49.07 50.27 53.01 55.61 55.46 56.45 56.81 58.38 60.74 62.20 60.37 59.68 56.03 51.72 50.47 51.19 50.15 51.11 49.22
37.12 38.89 38.59 36.84 38.28 40.49 35.90 40.66 37.95 37.29 33.04 31.72 31.00 26.39 30.92 37.87 37.14 39.54 41.49 42.45 43.61 45.12 45.88 46.33 47.18 48.70 49.58 49.89 52.49 56.13 56.15 56.43 58.27 61.63 62.64 60.15 56.23 52.35 50.34 48.74 47.45 47.33 48.13 47.33
40.14 44.13 40.91 39.67 41.51 41.05 41.29 37.27 36.92 35.81 33.41 24.45 29.82 29.55 28.86 33.27 36.28 38.87 41.80 42.46 44.44 43.63 44.29 46.24 47.82 48.41 48.38 49.11 49.93 53.53 55.64 56.18 58.91 61.22 61.57 57.67 54.47 49.86 47.88 45.68 44.81 44.52 44.86 46.42
37.20 37.91 41.38 42.27 37.80 40.80 39.17 34.51 23.06 22.34 24.33 20.63 33.32 30.01 31.88 38.46 41.14 42.00 41.60 42.14 42.12 43.53 43.76 46.18 47.25 48.96 48.28 47.95 49.41 50.54 55.23 55.12 58.91 60.13 59.33 56.60 55.16 49.94 47.03 45.65 44.53 43.79 43.31 44.53
30.02 29.21 37.69 40.52 37.93 35.54 35.41 34.06 23.81 18.69 20.04 23.79 33.00 26.61 31.56 40.03 42.37 42.61 43.23 42.84 44.30 41.55 45.06 46.59 48.26 49.20 49.55 48.83 49.42 49.94 54.15 55.24 58.18 59.31 57.40 56.50 51.72 49.30 47.01 46.47 45.24 44.40 44.13 44.32
31.62 31.61 40.52 40.91 41.39 39.97 34.51 29.73 34.35 26.44 27.59 20.52 26.43 31.19 37.12 40.94 40.89 41.66 41.43 42.51 42.03 42.01 46.13 46.39 47.99 48.88 49.26 48.59 49.88 50.70 53.78 55.59 57.45 57.89 57.13 55.14 50.75 49.15 46.82 44.67 44.99 44.66 44.07 44.46
37.27 30.21 37.55 40.16 41.41 40.39 36.42 38.21 29.21 28.36 16.90 17.44 25.03 27.70 30.45 35.20 37.42 39.37 39.46 40.45 42.40 45.39 45.60 46.02 46.79 48.14 50.55 49.54 49.55 51.28 54.22 55.21 56.05 56.69 55.76 51.81 49.18 46.69 45.53 45.50 43.33 43.38 43.53 42.86
38.69 34.47 32.08 35.83 33.59 32.73 33.36 31.95 33.16 32.00 29.49 21.82 20.77 25.30 34.65 36.70 38.02 38.45 39.90 41.83 43.12 43.99 46.16 46.08 46.78 48.20 50.48 49.45 49.35 51.61 54.01 54.71 55.72 55.46 52.48 45.48 43.18 44.25 44.26 42.95 42.77 42.22 41.71 41.44
39.00 34.48 25.66 29.88 37.45 39.08 37.80 33.40 32.07 25.80 22.44 27.85 26.41 26.97 41.24 40.49 38.83 40.75 40.64 43.70 44.68 45.74 46.24 46.59 47.05 47.92 48.69 50.23 50.54 52.08 53.97 55.53 52.89 48.24 43.97 40.94 41.11 42.33 41.11 41.60 40.46 41.26 41.26 40.38
38.89 30.64 22.80 26.76 32.78 36.21 32.50 35.17 35.88 34.13 32.36 26.73 24.41 26.47 40.80 40.25 41.37 42.73 41.29 41.43 43.82 44.80 44.53 46.02 46.71 46.90 47.52 50.68 52.94 54.13 54.74 53.39 47.37 42.96 40.70 40.16 40.43 40.51 40.41 39.13 40.45 40.44 39.70 39.91
41.32 35.09 27.96 22.95 29.83 35.01 29.98 33.44 34.97 33.69 28.87 28.22 28.71 30.51 36.04 39.26 40.45 42.64 43.36 44.11 43.28 43.78 44.30 45.80 45.88 45.89 47.10 51.39 52.08 51.95 48.17 46.36 42.99 40.40 39.22 39.17 39.40 39.87 39.30 39.29 39.70 39.15 39.10 37.86
37.68 30.25 30.66 32.40 33.83 32.89 32.27 33.12 34.34 32.43 33.51 29.86 31.70 32.98 37.05 39.48 40.56 42.07 42.99 43.70 43.09 42.43 42.07 45.40 45.06 44.79 46.64 49.45 48.54 45.49 44.49 42.18 40.03 38.73 38.60 38.84 38.68 39.24 38.78 38.49 38.28 37.73 37.41 36.25
38.76 30.41 31.25 27.74 33.77 33.72 31.18 34.64 35.72 36.75 37.41 37.08 36.94 35.77 42.20 43.02 43.71 42.20 41.94 43.25 43.03 43.67 43.38 44.83 44.83 44.53 46.93 44.85 42.09 41.04 39.12 38.74 39.09 37.97 37.66 38.17 37.93 37.95 37.32 37.24 36.36 35.79 35.03 34.60
36.66 32.76 32.02 23.75 33.46 32.90 31.09 35.27 37.75 38.06 39.59 38.82 34.34 38.78 41.97 42.01 43.04 42.58 42.13 42.84 42.15 43.09 44.04 45.34 45.16 45.79 41.07 40.08 39.78 37.11 36.39 37.30 37.75 37.42 37.20 36.95 36.37 36.06 35.42 35.50 35.33 34.24 33.55 33.69
36.96 35.22 34.15 26.80 31.11 24.74 37.34 42.13 41.00 39.04 40.13 40.89 41.16 41.31 41.58 43.00 43.11 41.93 41.98 41.69 42.54 43.50 44.34 45.68 44.42 39.82 37.98 37.69 37.49 37.22 37.14 36.82 35.97 35.32 35.12 35.08 35.01 34.66 35.09 34.93 34.18 33.53 32.46 31.67
39.59 36.57 32.21 26.93 28.09 31.70 36.04 39.57 39.13 36.85 37.12 42.01 40.51 41.52 42.75 43.52 42.69 40.15 41.32 42.85 44.34 44.44 46.32 43.75 39.24 36.60 36.09 36.55 36.73 35.76 35.52 35.55 35.27 34.68 34.39 34.96 35.17 34.57 34.43 33.52 32.22 31.16 31.90 31.10
39.39 38.60 33.38 30.73 26.81 24.15 34.04 39.98 42.48 42.57 35.27 40.96 41.97 42.74 42.58 42.70 37.48 37.81 41.07 40.98 38.62 38.31 38.22 36.19 35.64 36.22 35.96 35.74 36.42 35.50 35.03 35.64 35.35 35.41 35.35 35.84 35.39 34.19 32.20 31.09 30.37 31.53 31.21 30.87
34.37 34.60 30.93 31.38 29.61 31.41 39.03 41.45 43.81 33.17 33.98 41.96 41.74 43.93 41.48 40.05 39.13 39.68 39.98 39.65 37.94 36.86 35.74 36.16 36.16 35.17 35.72 37.13 37.25 35.59 35.29 34.39 35.11 35.36 35.16 34.08 33.19 31.50 31.68 30.58 30.95 31.00 30.26 29.51
32.75 31.55 31.08 32.50 30.03 26.06 41.66 40.97 37.23 40.34 41.35 41.46 40.53 43.76 41.33 39.56 38.69 38.66 37.80 37.06 38.86 38.92 38.21 38.04 36.92 37.38 38.65 38.99 37.61 35.71 34.46 35.38 34.86 33.09 32.37 31.75 31.55 32.91 32.22 30.37 29.37 28.50 27.46 26.63
32.49 36.64 34.93 33.96 33.22 41.20 43.67 42.36 43.93 42.54 40.53 40.03 39.52 42.03 42.78 39.66 38.01 37.67 36.73 35.22 34.96 36.29 37.58 38.73 38.33 38.04 38.64 37.70 34.18 31.07 31.11 31.23 31.11 31.17 30.94 31.40 31.85 31.14 30.18 27.87 26.91 26.33 26.81 25.19
38.68 41.36 37.13 38.10 41.83 41.44 42.34 43.32 43.06 41.55 39.38 39.95 40.77 41.37 43.01 38.33 36.65 36.25 35.97 36.38 36.04 35.16 34.66 34.79 32.97 31.49 30.54 31.45 31.26 30.81 31.50 32.25 31.69 30.70 30.36 28.58 27.95 28.08 28.05 27.91 27.03 25.40 24.54 23.96
39.26 41.59 38.73 38.63 41.70 42.83 41.70 41.32 40.92 40.97 40.18 39.55 40.90 42.17 39.83 38.08 36.91 35.54 33.89 33.62 33.83 34.43 34.41 33.15 30.38 28.97 28.48 30.22 30.69 31.65 32.31 32.45 30.65 29.01 27.58 27.53 27.65 26.44 25.16 25.25 25.14 24.48 25.01 25.37
39.85 38.69 36.98 36.79 42.24 41.60 39.99 41.27 42.33 39.73 38.12 38.96 39.24 38.60 39.20 38.20 36.12 35.33 33.66 33.70 32.94 32.02 32.06 30.48 29.28 28.82 29.57 30.65 31.26 32.16 32.75 31.81 29.47 27.27 25.85 26.09 24.98 24.78 24.22 23.66 23.74 30.10 29.29 29.14
MSLP
1010.47 1010.66 1010.43 1010.50 1010.49 1010.16 1009.54 1009.51 1009.23 1008.49 1008.03 1008.09 1008.03 1007.56 1007.12 1006.42 1005.75 1005.25 1005.07 1005.03 1004.66 1004.38 1004.17 1003.97 1003.95 1003.86 1003.94 1003.99 1004.29 1004.42 1004.87 1005.46 1006.06 1006.90 1007.29 1007.79 1008.52 1009.34 1009.81 1010.34 1010.87 1011.73 1012.51 1013.53
1010.74 1010.40 1010.12 1010.07 1009.89 1010.11 1009.87 1009.97 1009.92 1009.43 1009.10 1009.14 1008.68 1007.25 1006.72 1005.62 1004.37 1004.33 1004.31 1004.10 1003.83 1003.90 1003.75 1003.59 1003.44 1003.52 1003.64 1003.77 1003.90 1004.21 1004.36 1004.73 1005.35 1006.18 1006.77 1007.24 1008.47 1009.40 1009.64 1010.60 1011.19 1011.90 1012.76 1013.60
1010.34 1010.16 1009.94 1010.18 1010.07 1010.38 1010.50 1010.61 1010.66 1010.69 1010.55 1010.28 1009.46 1006.92 1004.98 1003.57 1003.20 1003.02 1002.91 1002.93 1003.12 1003.10 1003.24 1003.33 1003.30 1003.11 1003.21 1003.43 1003.66 1003.84 1003.97 1004.32 1004.78 1005.41 1006.40 1007.82 1008.71 1009.77 1010.50 1011.21 1011.91 1012.51 1013.16 1013.88
1010.68 1010.16 1010.14 1010.36 1010.38 1010.61 1010.81 1010.73 1011.01 1011.45 1011.85 1011.35 1010.50 1008.49 1005.30 1003.77 1002.75 1002.39 1002.20 1002.18 1002.28 1002.63 1002.82 1003.01 1003.13 1003.01 1002.80 1002.83 1003.12 1003.49 1003.70 1003.84 1004.14 1004.67 1005.73 1007.03 1007.83 1009.37 1010.37 1011.16 1012.08 1012.95 1013.62 1014.12
1010.43 1010.17 1010.30 1010.52 1010.43 1010.75 1011.09 1011.46 1012.04 1012.52 1012.73 1012.50 1011.17 1010.45 1004.40 1003.22 1002.64 1002.26 1001.95 1001.76 1001.88 1002.08 1002.14 1002.30 1002.48 1002.45 1002.68 1002.70 1002.78 1002.76 1003.28 1003.51 1003.69 1004.12 1005.00 1006.63 1007.78 1009.05 1010.26 1011.35 1012.27 1013.22 1014.01 1014.37
1010.33 1010.49 1010.55 1010.59 1010.82 1011.09 1011.77 1012.28 1012.78 1013.32 1013.49 1012.79 1010.46 1009.45 1003.85 1003.08 1002.36 1001.97 1001.50 1001.31 1001.31 1001.58 1001.76 1002.06 1002.16 1002.36 1002.39 1002.32 1002.38 1002.75 1002.74 1002.92 1003.44 1003.88 1004.77 1006.14 1007.47 1008.69 1010.32 1011.45 1012.39 1013.24 1014.00 1014.74
1010.93 1010.83 1010.82 1010.96 1011.16 1011.53 1012.19 1013.04 1013.52 1013.94 1013.72 1011.82 1008.91 1008.43 1004.86 1002.65 1002.05 1001.55 1001.50 1001.32 1001.45 1001.54 1001.76 1002.22 1002.36 1002.52 1002.43 1002.24 1002.41 1002.35 1002.60 1002.73 1003.00 1003.86 1004.80 1006.01 1007.16 1008.24 1009.59 1010.82 1011.92 1012.83 1013.85 1014.64
1010.82 1010.64 1010.55 1010.93 1011.24 1011.63 1012.42 1013.21 1013.65 1013.68 1012.96 1011.11 1009.39 1006.58 1003.67 1001.91 1001.35 1001.26 1001.14 1001.03 1001.08 1001.41 1001.79 1002.32 1002.68 1002.77 1002.44 1002.03 1001.73 1002.00 1002.27 1002.71 1003.02 1003.67 1004.91 1006.04 1007.23 1008.52 1009.56 1010.49 1011.45 1012.36 1013.24 1014.12
1010.20 1010.33 1010.02 1010.86 1011.26 1011.79 1012.49 1013.26 1013.47 1013.80 1013.01 1011.67 1008.83 1005.37 1003.09 1001.66 1001.13 1000.94 1000.66 1000.48 1000.71 1001.15 1001.98 1002.60 1002.97 1002.92 1002.43 1001.83 1001.24 1001.36 1001.93 1002.31 1002.94 1003.74 1004.81 1005.95 1007.22 1008.43 1009.44 1010.49 1011.47 1012.31 1013.16 1013.98
1010.21 1010.60 1010.75 1011.01 1011.30 1011.66 1012.03 1012.60 1013.71 1014.17 1013.69 1011.48 1007.61 1005.49 1003.14 1002.06 1001.58 1001.25 1001.23 1001.00 1001.07 1001.50 1001.94 1002.52 1003.14 1003.17 1002.33 1001.55 1000.88 1000.74 1001.27 1002.08 1002.84 1003.79 1004.91 1006.20 1007.40 1008.41 1009.39 1010.35 1011.34 1012.18 1013.02 1013.87
1010.22 1010.82 1011.75 1011.93 1011.56 1011.46 1012.23 1012.63 1013.16 1013.50 1013.23 1011.74 1008.52 1005.12 1002.75 1002.28 1002.11 1002.02 1001.78 1001.46 1001.56 1002.03 1002.46 1002.65 1003.04 1003.00 1002.46 1001.47 1000.88 1000.68 1001.17 1002.08 1003.04 1003.97 1005.20 1006.53 1007.70 1008.52 1009.58 1010.41 1011.33 1012.16 1012.77 1013.69
1010.42 1011.22 1011.90 1011.58 1011.16 1011.30 1011.48 1012.00 1012.75 1013.33 1012.44 1011.43 1009.39 1005.01 1003.15 1002.57 1002.33 1002.39 1002.19 1001.69 1001.78 1001.77 1002.15 1002.45 1002.71 1002.81 1002.60 1001.73 1001.04 1000.80 1001.16 1002.18 1003.32 1004.52 1005.75 1007.09 1008.13 1008.97 1010.01 1010.78 1011.82 1012.33 1013.11 1014.01
1010.48 1011.50 1012.02 1011.68 1011.49 1011.31 1011.32 1011.47 1011.74 1012.23 1012.28 1011.07 1009.82 1005.17 1002.69 1002.76 1002.49 1002.24 1001.76 1001.69 1001.54 1001.61 1001.95 1002.13 1002.62 1003.05 1002.81 1002.11 1001.34 1001.11 1001.41 1002.60 1003.95 1005.26 1006.54 1007.72 1008.69 1009.58 1010.37 1011.41 1012.11 1012.83 1013.45 1014.24
1010.41 1011.25 1011.77 1011.71 1011.30 1011.51 1011.61 1011.28 1011.32 1011.54 1011.47 1009.76 1007.57 1004.62 1003.90 1003.29 1002.66 1002.05 1001.94 1001.49 1001.39 1001.60 1001.86 1002.13 1002.48 1003.11 1002.82 1002.52 1002.36 1002.10 1002.82 1003.88 1005.14 1006.31 1007.29 1008.27 1009.14 1010.01 1010.75 1011.72 1012.59 1013.22 1014.00 1014.79
1010.93 1011.76 1011.85 1011.56 1011.18 1010.96 1010.69 1010.50 1010.34 1010.67 1010.05 1009.46 1006.77 1006.16 1004.04 1003.90 1003.35 1002.44 1002.07 1001.47 1001.22 1001.34 1001.60 1002.16 1002.62 1003.28 1003.17 1003.20 1003.33 1003.47 1004.07 1005.22 1006.24 1007.30 1008.25 1008.98 1009.60 1010.34 1011.17 1012.24 1013.09 1013.83 1014.67 1015.33
1011.23 1011.81 1011.68 1011.14 1010.29 1009.97 1009.47 1008.90 1008.61 1008.49 1008.30 1007.72 1006.92 1005.24 1004.43 1003.42 1002.87 1002.26 1002.21 1002.19 1002.12 1001.74 1002.15 1002.49 1002.91 1003.52 1003.78 1004.20 1004.46 1004.74 1005.32 1006.31 1007.15 1008.17 1008.99 1009.59 1010.10 1010.91 1011.94 1012.91 1013.67 1014.88 1015.34 1015.68
1011.21 1011.86 1011.93 1010.83 1009.58 1008.80 1007.79 1007.00 1007.33 1007.32 1007.15 1006.91 1006.14 1005.07 1004.16 1003.01 1002.59 1003.01 1003.16 1003.26 1003.03 1002.92 1002.90 1002.91 1003.26 1003.89 1004.58 1005.34 1005.77 1006.17 1006.77 1007.52 1008.39 1009.19 1009.83 1010.39 1011.16 1012.17 1013.20 1013.73 1014.54 1015.39 1015.94 1015.99
1011.31 1011.79 1011.83 1010.63 1009.11 1007.84 1005.99 1005.51 1005.51 1005.85 1005.80 1005.69 1005.21 1004.58 1004.02 1003.50 1003.48 1003.76 1003.91 1003.55 1002.95 1002.97 1002.96 1003.15 1003.77 1004.56 1005.29 1006.08 1006.87 1007.44 1008.13 1008.97 1009.75 1010.53 1011.00 1011.33 1012.01 1013.39 1014.48 1014.91 1015.28 1015.68 1016.07 1016.67
1011.19 1011.58 1011.31 1010.52 1009.23 1007.27 1005.22 1004.72 1004.83 1005.20 1005.09 1004.85 1004.64 1004.30 1004.02 1003.80 1003.92 1004.39 1004.34 1003.70 1002.25 1002.51 1002.74 1003.48 1004.51 1005.51 1006.23 1007.09 1008.02 1008.74 1009.56 1010.46 1011.20 1011.79 1012.17 1012.75 1013.37 1013.97 1013.86 1015.27 1016.28 1015.95 1016.32 1016.86
1010.79 1011.20 1011.29 1010.24 1009.32 1007.09 1004.88 1004.38 1004.31 1004.78 1004.66 1004.36 1004.42 1004.32 1004.32 1004.29 1004.58 1005.35 1005.30 1004.82 1004.11 1003.87 1004.24 1004.91 1005.83 1006.76 1007.46 1008.37 1009.04 1009.67 1010.63 1011.38 1012.26 1012.64 1013.21 1013.90 1014.83 1015.24 1015.19 1015.96 1015.99 1016.54 1016.94 1017.15
1009.93 1010.15 1010.20 1009.79 1008.93 1006.70 1004.47 1004.09 1004.23 1004.69 1004.74 1004.04 1004.26 1004.49 1004.81 1005.34 1006.29 1006.45 1006.28 1006.11 1005.96 1006.13 1006.42 1006.90 1007.55 1008.16 1008.86 1009.46 1009.96 1010.88 1011.69 1012.32 1012.78 1013.29 1013.81 1014.25 1014.23 1015.85 1015.78 1016.24 1016.57 1016.69 1017.15 1017.53
1008.16 1008.54 1008.65 1008.66 1007.99 1006.04 1003.89 1003.67 1004.18 1004.14 1003.94 1004.12 1004.23 1004.54 1005.17 1005.90 1006.76 1007.09 1007.12 1007.17 1007.29 1007.31 1007.83 1008.33 1008.86 1009.42 1009.99 1010.42 1010.70 1011.25 1011.96 1013.09 1013.46 1013.64 1014.27 1014.85 1015.21 1015.73 1016.63 1016.61 1016.78 1017.24 1017.70 1018.09
1006.48 1006.13 1006.36 1006.41 1005.18 1003.87 1003.28 1003.41 1003.53 1003.92 1004.36 1004.48 1004.63 1004.80 1005.46 1006.39 1007.09 1007.51 1007.73 1007.99 1008.14 1008.19 1008.79 1008.82 1009.15 1009.89 1009.99 1010.76 1011.71 1011.43 1012.16 1013.22 1013.75 1014.18 1014.78 1015.25 1016.22 1017.07 1016.88 1017.11 1017.55 1017.95 1018.15 1018.34
1005.52 1004.94 1005.34 1004.97 1003.73 1003.48 1003.45 1003.58 1004.06 1004.46 1004.81 1004.92 1004.91 1005.12 1005.46 1006.44 1007.41 1007.87 1008.31 1008.63 1008.79 1009.00 1009.33 1009.77 1010.30 1010.74 1011.33 1011.86 1012.36 1012.78 1013.30 1013.82 1014.30 1015.12 1015.97 1016.49 1016.69 1017.02 1017.25 1017.58 1017.94 1018.27 1018.50 1018.77
1005.54 1005.12 1004.82 1004.41 1003.74 1003.30 1003.68 1004.10 1004.50 1004.83 1005.14 1005.32 1005.27 1005.30 1006.06 1006.63 1007.44 1008.10 1008.62 1008.98 1009.28 1009.50 1009.90 1010.52 1011.09 1011.64 1012.26 1012.68 1013.10 1013.53 1013.84 1014.26 1014.95 1015.66 1016.25 1016.71 1017.10 1017.54 1017.99 1018.34 1018.55 1018.81 1019.02 1019.13
1005.24 1004.63 1004.51 1003.94 1003.61 1003.59 1004.13 1004.44 1004.75 1005.29 1005.75 1005.91 1005.94 1006.33 1006.58 1007.09 1007.61 1008.30 1008.99 1009.43 1009.85 1010.34 1010.79 1011.41 1011.99 1012.38 1012.96 1013.33 1013.75 1014.15 1014.47 1014.85 1015.49 1016.29 1016.85 1017.31 1017.77 1018.21 1018.51 1018.73 1018.97 1018.95 1019.08 1019.15
Wind_Speed
10 5 7 12 10 13 13 8 8 11 9 6 9 16 15 15 15 17 15 13 13 15 12 9 9 9 8 9 8 11 11 10 6 4 9 9 8 7 8 6 8 11 10 9
3 7 10 11 11 10 8 7 10 9 9 10 11 21 18 21 22 19 18 17 16 13 12 14 11 10 10 9 9 9 9 13 12 7 5 5 5 3 5 5 7 8 9 8
8 2 13 11 7 4 7 6 7 9 11 11 15 19 15 10 18 20 21 21 17 16 16 15 14 12 10 13 12 9 9 9 13 10 5 7 7 4 4 5 5 5 7 7
7 6 5 4 9 7 6 3 6 5 6 4 10 10 8 10 10 7 9 8 10 13 15 15 16 13 11 11 13 10 8 9 9 10 9 15 11 10 4 5 6 7 7 6
4 4 5 5 6 6 3 7 5 6 7 9 5 4 8 6 6 6 8 8 6 9 10 10 10 10 9 7 7 14 11 8 9 13 12 10 9 7 8 8 11 10 5 6
5 4 1 4 3 4 7 2 4 6 4 6 13 10 7 0 2 5 7 7 9 5 6 6 7 6 6 8 7 4 10 9 9 11 11 14 14 14 11 10 10 8 6 5
4 8 3 3 4 5 3 2 2 2 4 8 3 9 12 16 15 16 8 7 1 6 3 6 5 7 7 9 9 7 8 8 9 10 10 14 13 15 16 15 11 13 9 7
6 4 15 10 9 4 7 4 3 5 3 4 6 9 8 9 9 6 4 6 8 2 2 5 7 7 9 10 10 9 8 7 8 11 11 10 13 10 10 12 11 9 9 8
6 3 3 11 7 9 6 6 2 4 5 2 6 7 9 14 14 12 9 10 8 4 6 6 8 9 10 9 9 10 9 8 9 11 10 11 13 14 12 13 12 9 10 9
4 3 3 9 6 9 7 3 2 1 4 7 6 8 10 7 8 6 9 5 5 6 5 4 6 9 12 10 8 9 9 9 10 11 9 13 13 12 13 13 13 14 13 12
3 2 2 6 8 9 6 5 4 3 4 5 7 5 2 5 7 8 8 1 4 3 3 2 5 7 12 10 6 8 8 8 11 9 15 13 10 13 13 12 12 13 14 13
5 3 4 9 7 12 8 8 9 4 6 5 5 13 22 16 3 8 11 5 7 8 5 1 3 6 10 10 6 7 8 12 12 14 15 14 14 14 13 13 13 13 13 11
7 3 2 2 3 8 5 7 12 11 7 13 11 11 4 15 22 18 12 9 11 4 7 4 3 6 8 8 5 6 11 12 16 15 15 13 14 13 14 14 13 13 13 11
8 3 5 4 2 4 4 5 9 7 7 12 22 32 25 23 22 18 15 15 12 9 5 6 4 4 7 3 2 9 14 14 15 14 14 14 14 14 14 14 13 13 11 10
2 2 5 7 11 10 11 15 17 16 19 16 24 26 27 23 24 20 15 12 7 6 1 7 4 3 3 3 6 13 13 13 14 14 13 14 15 14 15 14 13 12 10 8
3 3 3 6 13 16 18 17 18 15 16 16 18 25 19 17 16 10 9 11 10 7 5 8 5 3 3 7 9 11 11 11 13 14 14 14 16 16 15 13 13 11 9 9
5 2 1 5 8 10 7 5 6 8 11 10 10 15 20 17 10 5 4 5 7 7 6 3 6 5 10 9 9 10 10 10 12 14 14 15 15 14 13 13 12 10 7 8
3 4 2 5 9 2 3 10 10 8 11 10 15 15 15 12 6 7 7 7 11 9 8 2 7 11 11 11 11 12 12 12 13 13 14 15 17 14 11 9 10 8 6 7
8 1 3 3 3 9 7 3 3 4 4 8 8 8 9 6 5 5 12 13 8 11 5 10 12 12 12 13 13 14 14 13 13 13 13 13 13 13 12 9 8 6 8 6
10 9 3 3 3 4 1 4 4 5 3 2 3 6 9 9 5 4 11 14 15 15 14 14 15 14 14 14 14 15 13 14 13 12 13 10 9 9 9 7 7 5 6 6
3 4 8 7 3 8 7 3 6 2 5 4 2 3 5 3 3 4 6 11 13 13 14 14 13 13 13 13 15 14 12 12 12 12 11 8 9 7 8 7 6 6 5 5
6 6 4 4 4 8 2 1 3 3 3 4 3 1 4 6 6 5 8 10 11 12 13 13 12 11 11 11 13 14 13 9 10 11 11 10 9 8 6 7 6 6 5 4
4 6 5 7 7 6 6 2 3 5 3 4 3 2 7 6 5 6 8 8 8 12 11 9 10 11 9 10 10 15 12 10 11 13 12 11 9 6 6 6 6 4 4 3
5 5 2 1 4 4 3 5 6 5 4 4 4 3 5 8 7 7 9 8 8 8 9 10 12 13 12 10 10 11 12 11 13 13 11 7 7 7 6 4 4 4 4 3
1 3 3 6 10 6 4 5 4 5 5 3 3 3 8 10 8 7 7 7 5 6 8 10 11 12 12 12 12 10 11 11 11 9 7 6 5 6 5 5 4 4 4 4
4 6 4 5 1 2 2 4 4 6 5 3 6 6 7 7 9 10 8 6 7 9 10 11 11 12 12 12 11 10 9 10 10 9 5 5 5 4 4 3 3 4 4 2
Wind_Direction
196 185 189 196 219 244 287 304 304 311 328 320 271 270 263 262 250 250 244 248 244 247 249 244 238 249 243 231 228 200 177 178 171 187 191 184 189 155 158 147 145 133 140 136
152 247 223 230 213 232 274 294 286 295 301 337 307 281 276 259 255 244 243 241 241 247 242 245 241 219 230 237 246 230 196 181 186 191 191 183 119 100 113 113 112 115 122 123
183 172 213 254 255 238 260 259 286 300 314 288 275 278 248 251 235 237 238 239 239 237 241 245 249 236 219 219 234 244 215 188 187 182 155 94 88 65 71 89 86 104 116 127
241 235 159 204 236 212 245 7 336 305 326 265 23 291 267 279 265 242 222 220 220 231 241 246 251 262 238 221 214 228 224 201 183 171 157 160 164 157 162 121 115 109 124 127
220 221 185 229 221 223 238 60 355 311 305 324 245 236 268 188 239 249 257 210 231 219 214 229 229 226 243 262 227 209 215 211 183 183 160 162 142 115 127 121 120 127 128 144
215 53 224 209 227 280 82 343 222 255 255 252 216 199 278 270 83 19 335 227 208 97 41 355 331 302 240 245 238 234 212 192 174 174 153 150 149 137 140 145 148 143 134 152
248 238 172 282 195 153 208 101 300 239 213 235 202 199 251 297 290 293 260 319 33 113 42 314 335 317 285 234 235 215 215 200 164 152 137 149 157 146 150 155 154 150 152 162
188 215 191 175 218 171 193 182 194 272 234 296 325 245 243 234 246 192 223 252 249 77 61 18 325 304 282 251 205 202 194 183 161 142 147 155 133 145 148 155 155 148 153 152
164 251 136 149 188 222 136 200 215 309 268 285 233 284 300 266 268 273 256 227 203 163 82 15 340 312 292 270 209 187 181 176 162 148 153 142 141 146 151 141 144 142 140 146
19 179 185 152 193 208 192 145 90 6 263 265 244 254 249 335 343 348 345 54 110 101 72 31 333 305 305 282 222 180 168 171 153 151 134 133 135 133 138 141 144 145 142 143
175 217 90 83 211 194 187 228 237 10 237 258 303 243 84 360 354 342 330 37 61 38 320 1 311 308 304 290 240 171 155 149 145 133 127 116 120 127 132 133 139 143 131 129
167 145 222 218 242 205 208 197 205 200 236 230 285 274 254 265 300 343 303 224 221 214 198 242 323 311 300 292 275 158 151 147 120 110 110 117 115 125 124 130 133 124 126 122
160 204 255 278 187 233 223 228 219 229 286 245 267 257 322 307 306 296 267 294 268 276 202 150 47 315 293 304 285 139 129 117 114 112 113 118 126 126 133 126 122 126 124 123
145 172 217 201 133 104 266 271 247 230 255 267 248 278 279 291 301 305 313 277 251 243 232 141 105 300 289 315 341 86 89 104 108 113 118 129 129 128 128 123 127 124 119 125
115 216 271 268 280 284 269 264 257 247 249 253 283 281 289 295 289 288 278 284 266 253 214 129 122 238 299 23 88 96 97 100 111 118 125 131 127 124 119 117 116 109 107 103
186 265 344 287 265 253 253 251 250 261 264 265 271 278 291 289 283 286 16 16 13 359 290 122 133 192 92 88 90 92 92 100 114 119 126 124 121 116 113 113 104 104 121 115
159 172 327 259 326 294 268 224 225 238 252 263 278 291 306 311 303 343 36 323 313 314 323 122 153 139 97 91 97 87 91 100 114 120 120 114 108 104 105 107 116 121 117 99
172 189 228 279 308 288 171 197 206 240 272 263 267 288 303 313 338 54 356 304 278 255 250 207 124 108 107 104 102 100 98 103 108 106 104 102 99 99 100 111 114 124 130 125
185 245 278 273 305 270 287 142 227 199 291 271 293 317 327 332 329 54 350 333 278 236 200 111 102 104 105 105 106 103 99 98 94 93 90 91 106 120 122 140 148 112 108 104
193 214 264 349 307 276 93 155 142 152 245 18 343 348 340 349 3 19 352 12 43 62 83 98 102 109 105 109 112 106 107 109 111 112 109 109 124 137 130 124 100 96 93 97
170 192 220 231 269 281 277 118 145 317 286 346 22 8 358 35 20 356 52 49 56 71 81 87 92 98 107 109 106 101 106 111 111 109 117 127 93 100 100 98 101 98 99 103
171 171 192 184 215 263 199 336 342 256 329 341 355 141 108 102 93 57 65 66 86 81 86 99 107 109 110 112 117 114 110 118 132 125 108 108 105 93 99 98 84 86 87 95
208 205 184 191 215 256 320 267 32 59 336 346 318 319 130 126 89 102 101 90 76 115 129 127 126 126 123 122 125 122 128 117 110 102 93 87 98 124 102 96 97 93 85 77
232 251 223 279 266 256 50 32 48 56 8 341 326 346 144 122 128 111 96 83 93 93 107 103 98 97 95 94 95 99 109 112 108 110 115 118 108 94 85 81 74 77 64 49
302 12 236 260 281 289 78 72 40 60 42 12 343 85 114 122 121 111 102 96 89 98 89 97 100 99 100 105 104 108 113 113 107 101 97 96 90 93 85 76 83 75 71 88
211 211 197 237 90 180 80 82 46 74 64 50 90 74 93 112 119 115 109 102 92 91 96 99 102 106 108 109 108 107 107 108 111 107 100 98 92 87 89 86 62 54 103 94